Temperature
-3 -3 -3 -3 -3 -3 -4 -4 -4 -4 -4 -4 -4 -4 -3 -4 -4 -4 -5 -5 -4 -4 -4 -3 -2 -2 -1 -1 0 1 2 2 2 3 3 3 4 4 4 5 5 5 5 6
-4 -3 -3 -3 -3 -3 -4 -4 -4 -4 -4 -4 -4 -4 -4 -4 -5 -5 -5 -5 -5 -5 -4 -4 -3 -2 -2 -1 -0 0 1 1 2 2 2 3 3 3 4 4 4 5 5 5
-4 -3 -3 -4 -4 -4 -4 -5 -5 -5 -5 -4 -5 -5 -5 -5 -5 -5 -6 -6 -6 -5 -5 -4 -4 -3 -2 -2 -1 -0 0 1 1 1 2 2 2 3 3 3 4 4 4 5
-4 -4 -5 -4 -4 -4 -5 -5 -5 -5 -5 -5 -5 -5 -5 -6 -6 -6 -6 -6 -6 -6 -5 -5 -4 -3 -3 -2 -2 -1 -1 -0 0 1 1 1 2 2 2 3 3 3 4 4
-5 -5 -4 -4 -5 -5 -6 -6 -5 -6 -5 -5 -5 -5 -5 -5 -6 -6 -6 -6 -6 -6 -6 -5 -4 -4 -3 -2 -2 -2 -1 -1 -0 0 0 1 1 1 1 2 2 3 3 3
-5 -5 -5 -5 -5 -5 -5 -6 -6 -6 -6 -6 -6 -7 -6 -6 -7 -7 -7 -7 -7 -6 -6 -5 -4 -4 -3 -3 -3 -2 -2 -1 -1 -1 -0 0 0 1 1 1 2 2 2 2
-6 -6 -5 -6 -6 -5 -6 -6 -6 -6 -6 -7 -7 -7 -7 -7 -7 -7 -7 -7 -7 -7 -6 -5 -5 -4 -4 -3 -3 -3 -2 -2 -2 -1 -1 -1 -0 -0 0 1 1 1 1 1
-6 -6 -6 -7 -6 -7 -7 -6 -6 -6 -7 -7 -7 -7 -7 -7 -8 -8 -7 -7 -7 -7 -6 -6 -5 -5 -5 -4 -4 -4 -3 -3 -2 -2 -2 -1 -1 -1 -0 -0 0 0 0 1
-6 -6 -5 -6 -6 -6 -6 -6 -7 -7 -7 -8 -8 -8 -8 -8 -8 -8 -8 -8 -7 -7 -7 -6 -6 -6 -5 -5 -5 -4 -4 -3 -3 -3 -3 -2 -2 -1 -1 -1 -1 -1 -0 -0
-7 -7 -6 -6 -6 -6 -6 -7 -7 -7 -8 -8 -8 -8 -8 -8 -8 -8 -8 -8 -8 -7 -7 -7 -6 -6 -6 -6 -5 -5 -5 -4 -4 -3 -3 -3 -2 -2 -2 -2 -1 -1 -1 -1
-8 -8 -6 -6 -6 -6 -7 -7 -8 -8 -8 -8 -8 -9 -9 -9 -9 -8 -8 -8 -8 -8 -7 -7 -7 -7 -6 -6 -6 -5 -5 -5 -5 -4 -4 -3 -3 -3 -2 -2 -2 -2 -2 -2
-8 -7 -7 -7 -7 -7 -7 -8 -8 -8 -8 -8 -9 -9 -9 -9 -9 -9 -8 -8 -8 -8 -8 -8 -7 -7 -7 -7 -6 -6 -6 -6 -6 -5 -5 -4 -4 -3 -3 -3 -3 -2 -2 -2
-6 -6 -7 -7 -7 -7 -8 -8 -8 -8 -9 -9 -9 -9 -9 -9 -9 -9 -9 -9 -9 -8 -8 -8 -8 -8 -7 -7 -7 -7 -7 -7 -6 -6 -5 -5 -5 -4 -4 -3 -3 -3 -3 -3
-7 -7 -7 -7 -8 -8 -8 -8 -9 -9 -9 -9 -9 -9 -9 -9 -9 -9 -9 -9 -9 -9 -8 -8 -8 -8 -8 -8 -8 -7 -7 -7 -7 -6 -6 -6 -5 -5 -5 -4 -4 -4 -4 -3
-7 -7 -8 -8 -8 -8 -9 -9 -9 -9 -9 -9 -9 -9 -9 -9 -9 -9 -9 -9 -9 -9 -9 -8 -8 -8 -8 -8 -8 -8 -7 -7 -7 -7 -7 -6 -6 -6 -5 -5 -5 -5 -4 -4
-8 -8 -8 -8 -8 -9 -9 -9 -9 -10 -10 -10 -10 -10 -10 -10 -9 -9 -9 -9 -9 -9 -9 -9 -9 -9 -8 -8 -8 -8 -8 -8 -7 -7 -7 -7 -7 -6 -6 -6 -6 -6 -5 -5
-8 -9 -9 -9 -9 -9 -10 -10 -10 -10 -10 -10 -10 -10 -10 -10 -10 -10 -9 -9 -9 -9 -9 -9 -9 -9 -9 -9 -9 -8 -8 -8 -8 -7 -7 -7 -7 -7 -7 -7 -6 -6 -6 -5
-8 -8 -9 -9 -9 -10 -10 -10 -10 -10 -10 -10 -10 -10 -10 -10 -10 -10 -10 -10 -10 -10 -10 -10 -10 -9 -9 -9 -9 -9 -9 -8 -8 -8 -8 -8 -8 -7 -7 -7 -7 -7 -6 -6
-8 -9 -9 -9 -10 -10 -10 -10 -10 -10 -10 -11 -11 -11 -11 -11 -11 -10 -10 -10 -10 -10 -10 -10 -10 -10 -10 -10 -9 -9 -9 -9 -9 -8 -8 -8 -8 -8 -8 -7 -7 -7 -7 -6
-9 -9 -9 -10 -10 -10 -10 -10 -10 -10 -10 -11 -11 -11 -11 -11 -11 -11 -10 -10 -11 -11 -10 -10 -10 -10 -10 -10 -10 -10 -9 -9 -9 -9 -9 -9 -8 -8 -8 -8 -8 -7 -7 -7
-9 -9 -10 -10 -10 -10 -10 -10 -11 -11 -11 -11 -11 -11 -11 -11 -11 -11 -11 -11 -11 -11 -11 -11 -11 -11 -11 -11 -10 -10 -10 -10 -10 -9 -9 -9 -9 -9 -8 -8 -8 -8 -7 -7
-9 -10 -10 -10 -10 -10 -11 -11 -11 -11 -11 -11 -11 -11 -11 -11 -11 -11 -11 -11 -11 -11 -11 -11 -11 -11 -11 -11 -10 -10 -10 -10 -10 -10 -10 -9 -9 -9 -9 -9 -8 -8 -8 -8
-10 -10 -10 -10 -11 -11 -11 -11 -11 -11 -11 -11 -11 -11 -11 -11 -11 -12 -11 -11 -11 -11 -11 -11 -11 -11 -11 -11 -11 -11 -10 -10 -10 -10 -10 -10 -10 -9 -9 -9 -9 -9 -8 -8
-10 -10 -11 -11 -11 -11 -11 -11 -11 -11 -12 -12 -12 -12 -12 -12 -12 -12 -12 -12 -12 -12 -11 -11 -11 -11 -11 -11 -11 -11 -11 -11 -11 -10 -10 -10 -10 -10 -10 -9 -9 -9 -9 -9
-10 -10 -11 -11 -11 -11 -11 -12 -12 -12 -12 -12 -12 -12 -12 -12 -12 -12 -12 -12 -12 -12 -12 -12 -12 -12 -12 -11 -11 -11 -11 -11 -11 -11 -11 -10 -10 -10 -10 -10 -10 -9 -9 -9
-11 -11 -11 -11 -12 -12 -12 -12 -12 -12 -12 -12 -12 -12 -12 -12 -12 -12 -12 -12 -12 -12 -12 -12 -12 -12 -12 -12 -12 -12 -11 -11 -11 -11 -11 -11 -11 -10 -10 -10 -10 -10 -10 -9
-11 -11 -11 -11 -12 -12 -12 -12 -12 -12 -12 -13 -12 -12 -12 -12 -12 -12 -12 -12 -12 -12 -12 -12 -12 -12 -12 -12 -12 -12 -12 -12 -11 -11 -11 -11 -11 -11 -11 -10 -10 -10 -10 -10
Wind_Speed
6 7 5 6 6 3 2 3 3 5 6 8 8 8 8 8 9 9 10 10 10 10 9 9 8 7 7 6 4 4 2 1 1 1 2 2 2 2 3 3 4 4 4 4
6 6 4 6 5 4 4 3 4 7 7 5 7 7 8 9 9 10 10 10 11 11 11 10 10 9 8 7 5 4 3 1 1 1 1 2 2 2 2 3 3 4 4 5
4 4 5 5 3 3 2 3 4 6 6 7 8 9 9 10 9 9 9 10 11 11 10 10 10 9 8 7 5 4 3 2 0 0 1 1 1 2 2 3 3 3 3 4
4 4 3 3 2 1 2 4 4 4 5 6 6 7 7 7 8 9 10 11 11 10 10 10 9 9 8 6 4 3 3 2 1 1 1 1 1 2 2 1 2 3 3 3
2 3 5 1 1 1 1 4 2 4 7 7 7 6 5 6 9 10 10 10 10 10 10 10 9 9 8 6 5 4 4 3 2 1 1 1 2 2 1 1 2 3 3 4
3 3 3 2 1 2 0 3 2 4 6 8 8 5 5 9 10 10 10 9 9 10 10 10 10 8 6 6 5 5 5 5 3 2 2 2 2 2 1 2 2 3 3 3
4 4 4 1 2 2 0 4 3 3 4 6 4 4 7 10 10 9 10 10 9 9 9 9 9 7 6 6 6 6 6 5 4 2 2 2 1 1 2 2 2 3 3 2
2 3 5 0 1 2 3 2 3 4 4 5 6 7 8 9 9 10 10 10 9 8 9 9 8 6 6 6 6 6 5 4 4 2 2 1 0 1 1 2 3 3 3 2
4 5 2 2 2 2 1 3 3 3 5 6 7 8 9 9 9 9 9 9 8 8 9 8 7 6 6 7 6 6 5 4 4 3 2 1 0 1 1 2 2 2 3 2
4 5 3 3 2 2 2 3 4 4 5 5 7 8 9 9 9 9 9 8 8 8 8 8 8 7 6 6 6 5 5 4 4 3 2 2 1 0 1 1 2 2 3 2
5 6 5 3 2 2 3 3 4 5 5 5 6 8 8 8 8 8 8 8 7 7 7 8 8 7 7 6 6 5 5 4 4 4 2 2 2 1 1 1 1 2 2 2
5 3 3 3 2 2 3 4 4 5 6 6 6 7 7 7 7 7 7 7 7 6 7 7 7 8 7 6 5 5 5 4 3 3 3 2 2 2 4 2 2 2 1 1
4 2 3 4 3 2 3 4 4 4 5 6 5 5 6 6 6 6 7 6 6 6 6 7 7 7 8 7 6 5 4 4 3 3 3 2 2 1 2 3 4 3 2 2
3 2 4 3 3 2 3 3 3 4 4 5 5 5 5 6 6 6 6 6 6 6 6 6 6 7 7 7 6 5 4 4 3 2 2 2 2 1 1 1 1 2 2 2
3 3 4 3 3 3 3 3 3 4 4 5 4 5 5 6 6 6 6 6 6 5 6 6 6 7 7 7 6 6 5 4 3 2 2 2 2 2 1 1 1 1 1 2
3 3 3 3 4 4 3 3 4 5 4 5 5 5 5 5 6 6 6 5 5 6 6 6 6 7 7 7 6 5 4 6 5 3 2 2 2 2 1 1 1 1 1 1
2 3 3 4 4 4 4 4 4 4 4 4 5 5 5 5 5 6 6 5 5 5 5 5 6 7 6 6 5 4 4 5 6 3 2 2 2 1 1 1 1 1 1 1
3 3 2 3 3 4 4 4 4 4 4 4 4 4 4 5 5 6 6 6 6 6 5 5 6 6 5 5 5 4 4 3 3 3 2 2 2 2 1 1 1 1 1 2
2 2 2 2 3 3 3 3 4 3 3 3 4 4 5 5 5 5 5 5 5 6 6 6 9 6 5 6 6 3 4 4 3 3 2 3 3 2 1 1 1 1 1 1
2 2 2 2 2 2 2 3 3 3 3 3 4 4 5 5 5 5 5 5 4 4 5 6 6 5 5 5 6 3 3 3 3 3 3 2 2 2 2 1 1 1 1 1
2 2 2 2 2 2 2 2 2 3 4 3 4 4 5 5 5 4 4 5 5 5 6 8 5 4 4 5 6 3 3 3 3 3 3 3 2 2 2 2 2 2 1 1
2 2 2 2 2 3 2 2 2 3 3 4 4 4 5 5 5 5 4 4 5 7 6 3 3 6 7 6 3 3 3 3 3 2 2 2 3 2 2 2 2 2 2 1
2 2 2 2 2 3 3 2 2 3 3 4 4 4 5 5 4 4 5 4 4 7 6 4 6 9 8 4 3 3 3 3 3 3 2 2 3 3 3 3 2 2 2 2
2 2 3 2 2 2 3 3 3 3 3 4 4 4 4 4 4 3 4 7 8 8 5 7 9 9 8 3 3 3 3 3 3 3 3 3 3 3 3 3 3 3 2 2
2 2 2 2 2 3 4 4 3 3 3 3 4 4 3 3 3 4 4 5 8 8 5 7 9 9 5 3 3 3 3 3 3 3 3 3 3 3 3 3 3 3 3 3
2 2 3 3 3 3 2 2 3 3 3 3 4 3 3 3 3 4 4 4 6 7 5 4 5 5 4 3 3 3 3 4 4 4 3 3 3 3 3 3 4 3 3 4
2 2 2 2 2 2 2 2 3 3 3 4 4 4 4 4 4 4 4 4 4 4 4 4 4 3 3 3 3 4 4 4 3 3 4 4 4 4 4 5 4 4 4 4
Wind_Direction
274 287 297 300 303 309 277 262 265 285 300 319 339 335 337 346 346 347 350 348 346 344 342 341 339 337 341 328 329 333 311 262 241 221 194 190 185 193 191 189 200 198 192 186
283 266 271 294 296 283 274 274 273 289 293 319 331 338 342 344 344 343 341 343 342 339 338 338 338 336 336 323 324 323 315 269 263 237 210 193 190 186 188 191 195 189 189 184
284 302 308 291 268 236 257 278 276 279 290 329 335 340 340 336 337 337 341 343 340 336 332 332 331 331 328 320 322 321 319 310 277 252 241 220 210 189 195 194 190 186 182 177
289 322 273 243 78 99 267 285 293 296 317 334 332 329 332 340 346 346 343 338 334 331 331 330 330 330 325 322 328 329 328 331 310 282 261 243 206 194 203 188 183 182 176 181
289 286 271 235 63 41 297 302 319 322 330 335 335 330 340 10 1 346 338 334 330 329 328 329 329 330 328 334 343 346 341 331 304 278 262 253 223 208 200 183 182 177 178 180
272 277 272 268 5 355 9 285 357 356 334 333 342 335 320 343 341 334 333 333 332 331 330 333 333 335 340 346 347 342 332 325 310 289 272 250 236 215 207 191 180 170 169 168
255 254 269 294 329 42 132 273 336 335 323 328 319 284 300 323 329 330 328 330 332 332 331 331 332 339 345 347 340 331 328 330 323 305 292 275 261 229 189 179 161 153 153 152
228 241 263 39 82 181 244 323 332 323 322 317 309 308 313 321 325 327 328 330 333 333 331 330 336 343 343 340 335 335 338 339 331 321 309 296 279 259 195 163 152 150 148 147
211 225 249 171 200 238 337 324 320 325 322 319 313 311 316 319 321 323 325 328 331 332 330 335 345 350 344 339 342 343 347 346 339 337 346 336 225 215 171 155 156 161 157 160
260 268 271 256 259 288 312 309 317 324 320 318 308 310 314 318 320 322 323 327 332 334 336 340 345 349 347 343 349 353 352 348 344 353 2 5 359 7 113 141 158 164 166 168
252 276 295 272 264 290 310 317 317 315 311 307 306 307 310 313 315 318 321 326 329 332 337 339 341 345 348 352 357 359 355 354 355 356 360 4 13 22 47 77 144 160 169 172
240 247 233 275 304 323 315 309 309 313 312 311 307 304 310 308 310 314 317 322 328 336 339 339 342 342 346 352 356 358 355 355 354 351 356 2 17 27 32 52 52 59 103 170
244 288 276 279 299 298 290 298 303 301 299 306 310 309 308 306 309 312 317 325 332 335 336 337 339 341 344 348 351 354 350 343 342 347 351 354 1 18 17 29 45 52 60 70
252 281 281 280 290 301 297 300 303 301 302 308 313 316 316 316 319 322 322 324 328 332 335 336 339 339 340 344 347 347 343 338 339 342 343 339 340 355 14 21 33 36 41 54
253 244 256 287 302 305 302 304 308 308 314 319 323 323 323 322 319 316 318 322 330 335 337 337 336 333 338 342 343 343 340 342 338 337 339 337 341 356 6 6 27 33 40 48
271 264 266 281 287 291 294 295 296 302 311 316 322 321 318 315 315 318 322 331 336 332 330 330 327 328 336 341 342 342 341 341 343 342 340 342 347 357 3 9 25 37 33 21
253 272 272 285 289 289 288 288 290 296 304 308 311 315 318 321 324 326 328 330 327 319 319 321 323 328 333 338 340 339 340 341 344 343 341 342 344 344 345 357 12 12 359 356
233 248 259 273 286 292 298 301 301 304 303 303 310 318 320 321 318 317 320 327 329 328 328 330 329 332 335 338 338 333 335 337 340 339 340 343 341 337 341 355 359 355 350 359
277 273 278 284 286 287 296 304 308 310 309 313 316 312 310 309 309 313 321 328 327 325 331 335 333 339 335 335 336 331 336 337 338 337 333 335 341 340 346 349 342 333 326 332
287 290 290 296 308 305 302 306 314 318 320 321 316 314 316 316 316 317 320 314 306 306 318 325 329 328 326 329 334 335 335 333 332 331 332 333 335 335 330 330 324 313 318 324
284 291 294 300 307 309 303 308 312 313 319 322 312 307 309 311 313 312 312 310 312 317 323 325 332 328 328 332 335 335 331 329 330 330 332 332 333 332 325 321 317 314 315 317
282 289 294 295 296 303 308 308 301 305 313 313 311 310 312 314 316 312 299 289 306 319 327 320 318 320 329 335 337 332 332 331 329 329 328 327 328 325 320 315 308 308 305 299
287 290 292 291 289 293 302 304 299 301 300 303 306 307 306 305 307 305 307 310 315 316 324 317 316 322 329 337 334 330 331 331 327 324 321 317 316 314 311 309 305 299 291 287
286 295 296 298 303 298 298 299 296 292 287 290 292 292 295 302 302 290 292 311 319 317 319 317 321 323 329 339 331 325 323 321 320 318 316 312 308 306 304 301 298 295 286 281
287 291 295 295 289 284 288 296 297 294 293 296 299 298 291 285 287 301 307 308 312 317 318 318 321 324 332 328 321 316 315 308 306 308 304 306 306 305 303 301 298 294 289 282
268 269 269 267 269 280 292 295 296 301 304 306 309 309 307 305 300 303 305 304 306 313 318 314 312 316 319 315 311 309 307 307 311 314 311 308 304 300 297 298 297 293 290 289
269 273 280 287 289 289 290 287 287 292 296 296 301 306 310 309 308 309 309 310 310 310 309 309 307 306 308 307 306 304 302 300 299 300 301 299 298 296 295 295 295 294 290 288
Height
1523 1518 1517 1516 1515 1514 1516 1515 1515 1511 1508 1506 1504 1501 1499 1496 1494 1490 1487 1484 1481 1479 1476 1473 1471 1470 1468 1468 1468 1468 1470 1471 1473 1476 1478 1481 1484 1487 1489 1492 1495 1498 1501 1503
1521 1515 1514 1513 1512 1512 1513 1513 1513 1510 1508 1505 1504 1501 1498 1496 1493 1490 1487 1484 1481 1478 1475 1472 1469 1468 1466 1465 1465 1466 1467 1468 1470 1473 1475 1477 1480 1482 1485 1488 1491 1494 1496 1498
1520 1513 1513 1514 1511 1512 1513 1512 1512 1511 1508 1504 1503 1501 1498 1496 1493 1490 1487 1484 1481 1477 1474 1471 1469 1467 1465 1464 1463 1463 1464 1466 1468 1469 1471 1473 1475 1478 1480 1483 1486 1489 1491 1494
1521 1519 1523 1515 1510 1510 1511 1510 1509 1507 1506 1504 1503 1500 1498 1496 1493 1490 1487 1483 1479 1476 1473 1470 1467 1465 1464 1462 1462 1462 1463 1464 1465 1466 1468 1470 1472 1474 1476 1479 1482 1484 1487 1489
1524 1522 1514 1512 1511 1511 1512 1511 1508 1507 1505 1503 1501 1498 1495 1494 1492 1490 1486 1483 1479 1475 1472 1468 1465 1463 1461 1460 1460 1460 1460 1461 1462 1463 1465 1466 1468 1470 1473 1475 1477 1480 1482 1485
1524 1524 1519 1513 1511 1509 1512 1511 1507 1506 1505 1503 1500 1500 1496 1493 1491 1488 1484 1481 1477 1473 1470 1466 1464 1461 1460 1458 1458 1458 1458 1459 1459 1461 1462 1464 1465 1467 1469 1471 1473 1476 1478 1481
1527 1524 1516 1513 1510 1509 1516 1512 1507 1505 1504 1503 1501 1500 1496 1492 1489 1486 1482 1479 1475 1471 1468 1465 1463 1461 1459 1458 1457 1457 1457 1457 1458 1459 1460 1461 1463 1464 1466 1468 1470 1472 1474 1477
1525 1525 1520 1512 1510 1512 1511 1507 1505 1503 1502 1501 1498 1496 1493 1490 1487 1483 1479 1476 1473 1469 1466 1464 1461 1460 1458 1457 1456 1456 1455 1455 1456 1456 1457 1459 1460 1461 1463 1465 1466 1468 1470 1473
1520 1518 1511 1509 1508 1508 1507 1505 1503 1502 1500 1498 1495 1493 1490 1487 1484 1481 1478 1474 1471 1468 1465 1463 1461 1459 1457 1456 1455 1454 1453 1453 1454 1454 1455 1456 1457 1459 1460 1462 1463 1465 1467 1469
1515 1510 1508 1507 1506 1506 1505 1504 1502 1500 1498 1496 1493 1490 1488 1485 1482 1479 1475 1472 1469 1466 1463 1461 1459 1457 1456 1455 1454 1453 1452 1452 1452 1452 1453 1454 1455 1456 1457 1459 1460 1462 1464 1465
1513 1508 1506 1504 1504 1503 1502 1501 1499 1498 1496 1493 1491 1488 1485 1482 1479 1476 1474 1471 1468 1465 1463 1460 1458 1456 1455 1454 1452 1451 1451 1450 1450 1450 1451 1452 1453 1454 1456 1457 1458 1460 1461 1463
1508 1505 1504 1503 1502 1501 1500 1498 1497 1495 1492 1490 1488 1485 1483 1480 1477 1475 1472 1469 1467 1464 1462 1460 1458 1456 1454 1453 1451 1450 1450 1449 1449 1449 1449 1450 1451 1452 1454 1455 1456 1458 1459 1460
1503 1502 1501 1500 1499 1498 1497 1495 1494 1492 1490 1487 1485 1483 1480 1478 1475 1473 1470 1468 1465 1463 1461 1459 1457 1455 1454 1452 1451 1450 1449 1449 1448 1448 1448 1449 1450 1450 1451 1453 1454 1455 1457 1458
1500 1500 1498 1497 1497 1495 1494 1492 1491 1489 1487 1485 1482 1480 1478 1475 1473 1471 1469 1467 1464 1462 1460 1459 1457 1455 1454 1452 1451 1449 1449 1448 1448 1448 1448 1448 1449 1449 1449 1450 1451 1452 1454 1455
1496 1497 1496 1495 1494 1492 1491 1489 1488 1486 1484 1482 1480 1478 1476 1474 1471 1469 1468 1465 1463 1462 1460 1458 1456 1455 1454 1452 1450 1449 1448 1447 1447 1447 1447 1447 1447 1448 1448 1449 1450 1450 1452 1453
1494 1493 1493 1492 1491 1489 1488 1487 1485 1483 1482 1480 1478 1476 1474 1472 1470 1468 1466 1464 1462 1460 1459 1457 1456 1454 1453 1451 1450 1449 1448 1447 1447 1446 1446 1446 1447 1447 1447 1448 1449 1449 1450 1451
1491 1490 1489 1488 1488 1486 1485 1484 1483 1481 1479 1478 1476 1475 1473 1470 1468 1466 1465 1463 1461 1459 1458 1456 1455 1454 1452 1451 1449 1448 1447 1446 1446 1446 1445 1445 1446 1446 1447 1447 1448 1448 1449 1450
1488 1488 1487 1486 1485 1484 1483 1482 1480 1479 1477 1476 1474 1472 1470 1468 1466 1465 1463 1461 1460 1458 1457 1455 1454 1452 1451 1450 1449 1447 1446 1445 1445 1445 1445 1445 1445 1445 1446 1446 1447 1447 1448 1449
1485 1485 1485 1484 1483 1482 1480 1479 1478 1476 1475 1474 1472 1470 1469 1467 1465 1464 1462 1460 1458 1456 1455 1454 1452 1451 1450 1449 1448 1447 1446 1445 1444 1444 1444 1444 1444 1444 1445 1445 1445 1446 1446 1447
1483 1483 1482 1481 1481 1479 1478 1477 1476 1474 1473 1472 1470 1468 1467 1465 1464 1462 1460 1459 1457 1456 1454 1453 1451 1450 1449 1448 1447 1446 1445 1444 1443 1443 1443 1443 1443 1443 1443 1444 1444 1444 1445 1445
1481 1480 1480 1479 1478 1477 1476 1475 1474 1472 1471 1470 1468 1467 1465 1464 1462 1461 1458 1457 1456 1455 1453 1452 1450 1449 1448 1447 1446 1445 1445 1444 1443 1443 1442 1442 1442 1442 1442 1442 1442 1442 1443 1443
1479 1478 1477 1476 1476 1475 1474 1473 1472 1470 1469 1468 1467 1465 1463 1462 1460 1459 1457 1456 1455 1453 1452 1450 1449 1448 1447 1446 1445 1444 1444 1443 1442 1442 1441 1441 1440 1440 1440 1440 1440 1440 1440 1440
1476 1476 1475 1474 1473 1472 1471 1471 1470 1468 1467 1466 1465 1463 1461 1460 1459 1457 1455 1455 1453 1451 1450 1449 1448 1447 1446 1445 1444 1443 1442 1442 1441 1441 1440 1440 1439 1439 1438 1438 1438 1438 1438 1438
1474 1473 1472 1472 1471 1470 1469 1468 1467 1466 1465 1464 1463 1461 1460 1458 1457 1456 1454 1453 1451 1450 1448 1447 1446 1445 1444 1443 1442 1441 1441 1440 1440 1439 1438 1438 1437 1437 1436 1436 1435 1435 1435 1435
1471 1471 1470 1469 1468 1467 1466 1465 1464 1463 1462 1461 1460 1459 1458 1456 1455 1453 1452 1450 1449 1447 1446 1445 1444 1443 1442 1441 1440 1439 1439 1438 1438 1437 1436 1436 1435 1434 1434 1433 1433 1432 1432 1432
1469 1468 1467 1466 1465 1464 1463 1462 1461 1460 1459 1458 1457 1456 1455 1454 1453 1451 1450 1448 1447 1445 1444 1442 1441 1440 1439 1438 1438 1437 1436 1436 1435 1434 1434 1433 1432 1432 1431 1430 1430 1430 1429 1429
1466 1465 1464 1463 1462 1462 1461 1460 1459 1458 1457 1456 1455 1454 1453 1451 1450 1449 1447 1446 1444 1443 1441 1440 1439 1438 1437 1436 1435 1435 1434 1433 1433 1432 1431 1430 1430 1429 1428 1427 1427 1426 1426 1426